Regional Weather Roundup
Issued by NWS

Home | Current Version | Previous Version | Graphics & Text | Print | Product List | Glossary On
Versions: 1 2 3 4 5 6 7 8 9 10 11 12 13 14 15 16 17 18 19 20 21 22 23 24 25 26 27 28 29 30 31 32 33 34 35 36 37 38 39 40 41 42 43 44 45 46 47 48 49 50
341
ASUS44 KMEG 300600
RWRTN
TENNESSEE HOURLY STATE WEATHER ROUNDUP
NATIONAL WEATHER SERVICE MEMPHIS TN
100 AM CDT TUE MAY 30 2017

TNZ002-004-019-021-049-052-054-088>092-300700-
WEST TENNESSEE

CITY           SKY/WX    TMP DP  RH WIND       PRES   REMARKS
MEMPHIS INTL   CLEAR     70  68  93 CALM      30.04S
NWS MEMPHIS      N/A     68 N/A N/A MISG        N/A
JACKSON        CLOUDY    67  66  97 SW7       30.04R
DYERSBURG        N/A    N/A N/A N/A MISG        N/A
$$

TNZ008-025-027-028-033-062-065-066-300700-
NORTH MIDDLE TENNESSEE

CITY           SKY/WX    TMP DP  RH WIND       PRES   REMARKS
NASHVILLE      MOCLDY    69  65  86 CALM      30.04S
CLARKSVILLE    CLOUDY    68  64  87 VRB3      30.03R
SMYRNA         PTCLDY    66  65  96 SE6       30.06R
CROSSVILLE     MOCLDY    62  61  96 VRB3      30.10S FOG
$$

TNZ061-075-076-078-094-096-097-300700-
SOUTH MIDDLE TENNESSEE

CITY           SKY/WX    TMP DP  RH WIND       PRES   REMARKS
TULLAHOMA      CLOUDY    63  63 100 CALM      30.09S VSB 1/4
WINCHESTER     CLEAR     63  63 100 CALM        N/A
$$

TNZ017-018-042-046-047-300700-
NORTHEAST TENNESSEE

CITY           SKY/WX    TMP DP  RH WIND       PRES   REMARKS
TRI CITIES     CLOUDY    63  63 100 NW3       30.07S FOG
$$

TNZ012-013-036-069-073-074-300700-
CENTRAL EAST TENNESSEE

CITY           SKY/WX    TMP DP  RH WIND       PRES   REMARKS
KNOXVILLE      CLOUDY    67  65  93 SW5       30.06S
OAK RIDGE      CLOUDY    68  65  90 VRB3      30.07S
GATLINBURG     PTCLDY    63  63 100 CALM      30.06S
$$

TNZ083-085-099-300700-
SOUTHEAST TENNESSEE

CITY           SKY/WX    TMP DP  RH WIND       PRES   REMARKS
CHATTANOOGA    CLOUDY    65  63  93 S3        30.08S
$$

SKY/WX REPORTED AS FAIR MEANS FEW OR NO CLOUDS BELOW
12 THOUSAND FEET.





USA.gov is the U.S. government's official web portal to all federal, state and local government web resources and services.